EW3897 Weather Reports


Display with metric or nautical units.
time (UTC)temp
F
wind
direction
speed
MPH
gust
MPH
rain 1hr
in
rain 24hr
in
rain mn
in
humidity
%
barometer
mb
20260906043059 73 307 0.0 0.0 0.00 0.26 0.00 95 1011.3
20260906043044 73 0 0.0 0.0 0.00 0.26 0.00 94 1013.4
20260906041552 73 306 0.0 0.0 0.00 0.26 0.00 95 1011.6
20260906041547 73 0 0.0 0.0 0.00 0.26 0.00 94 1013.6
20260906040144 73 307 0.0 0.0 0.00 0.26 0.00 95 1011.4
20260906040050 73 0 0.0 0.0 0.00 0.26 0.00 94 1013.6
20260906034548 73 0 0.0 0.0 0.00 0.26 0.26 94 1013.5
20260906034535 72 304 0.0 0.0 0.00 0.26 0.26 94 1011.5
20260906033044 73 304 0.0 0.0 0.00 0.26 0.26 95 1011.5
20260906033039 73 0 0.0 0.0 0.00 0.26 0.26 94 1013.5
20260906031549 73 0 0.0 0.0 0.00 0.26 0.26 94 1013.3
20260906031536 73 304 0.0 0.0 0.00 0.26 0.26 94 1011.2
20260906030133 73 303 0.0 0.0 0.00 0.26 0.26 94 1011.4
20260906030043 73 0 0.0 0.0 0.00 0.26 0.26 94 1013.5
20260906024550 73 304 0.0 0.0 0.00 0.26 0.26 94 1010.9
20260906024537 73 0 0.0 0.0 0.00 0.26 0.26 94 1013.1
20260906023053 73 304 0.0 0.0 0.00 0.26 0.26 94 1011.0
20260906023049 73 0 0.0 0.0 0.00 0.26 0.26 94 1013.0
20260906021552 73 0 0.0 0.0 0.00 0.26 0.26 93 1012.8
20260906021547 73 304 0.0 0.0 0.00 0.26 0.26 94 1010.7
20260906020149 73 303 0.0 0.0 0.00 0.26 0.26 94 1010.6
20260906020053 73 0 0.0 0.0 0.00 0.26 0.26 93 1012.6
20260906014550 74 0 0.0 0.0 0.00 0.26 0.26 93 1012.6
20260906013058 74 303 0.0 0.0 0.00 0.26 0.26 93 1010.4
20260906013041 74 0 0.0 0.0 0.00 0.26 0.26 93 1012.6
20260906011600 74 303 0.0 0.0 0.00 0.26 0.26 93 1010.5
20260906011543 74 0 0.0 0.0 0.00 0.26 0.26 93 1012.6
20260906010149 74 304 0.0 0.0 0.00 0.26 0.26 92 1010.4
20260906010042 74 0 0.0 0.0 0.00 0.26 0.26 92 1012.6
20260906004542 75 0 0.0 0.0 0.00 0.26 0.26 91 1012.6
20260906004530 75 303 0.0 0.0 0.00 0.26 0.26 92 1010.5
20260906003045 75 0 0.0 0.0 0.00 0.26 0.26 91 1012.5
20260906003031 75 304 0.0 0.0 0.00 0.26 0.26 91 1010.4
20260906001541 76 0 0.0 0.0 0.00 0.26 0.26 89 1012.5
20260906001530 76 303 0.0 0.0 0.00 0.26 0.26 90 1010.3
20260906000130 78 303 0.0 0.0 0.00 0.26 0.26 88 1010.5
20260906000040 78 0 0.0 0.0 0.00 0.26 0.26 87 1012.7
20260905234549 80 302 0.0 0.0 0.00 0.27 0.26 84 1010.3
20260905234545 80 0 0.0 0.0 0.00 0.27 0.26 84 1012.5
20260905233045 81 302 0.0 0.0 0.00 0.27 0.26 82 1010.3
20260905231543 82 307 0.0 0.0 0.00 0.27 0.26 80 1010.2
20260905230143 83 307 0.0 0.0 0.00 0.27 0.26 77 1010.1
20260905230040 83 0 0.0 0.0 0.00 0.27 0.26 76 1012.4
20260905224554 83 307 0.0 1.0 0.00 0.27 0.26 76 1010.0
20260905224539 83 0 0.0 1.0 0.00 0.27 0.26 75 1012.2
20260905223050 82 235 0.0 0.0 0.00 0.27 0.26 79 1010.1
20260905223045 82 0 0.0 0.0 0.00 0.27 0.26 78 1012.2
20260905221549 82 309 0.0 0.0 0.00 0.27 0.26 79 1010.1
20260905221547 82 0 0.0 0.0 0.00 0.27 0.26 79 1012.3
20260905220147 82 309 0.0 0.0 0.00 0.27 0.26 73 1010.3
20260905220040 82 0 0.0 2.0 0.00 0.27 0.26 73 1012.5
20260905214542 82 0 0.0 0.0 0.00 0.27 0.26 74 1012.7
20260905214537 82 315 0.0 0.0 0.00 0.27 0.26 74 1010.4
20260905213042 81 0 0.0 1.0 0.00 0.27 0.26 78 1012.7
20260905213039 81 279 0.0 0.0 0.00 0.27 0.26 79 1010.3
20260905211547 78 0 0.0 2.0 0.00 0.27 0.26 84 1012.8
20260905211541 78 296 0.0 2.0 0.00 0.27 0.26 85 1010.6
20260905210132 77 300 0.0 1.0 0.00 0.27 0.26 88 1010.9
20260905210100 77 0 0.0 1.0 0.00 0.27 0.26 87 1013.2
20260905204547 77 231 0.0 0.0 0.00 0.27 0.26 88 1011.1
20260905204542 77 0 0.0 0.0 0.00 0.27 0.26 87 1013.4
20260905203044 77 239 0.0 0.0 0.00 0.27 0.26 89 1011.0
20260905201544 77 0 0.0 0.0 0.00 0.27 0.26 89 1013.4
20260905200143 76 148 0.0 0.0 0.00 0.27 0.26 89 1011.5
20260905200057 76 0 0.0 0.0 0.00 0.27 0.26 88 1013.8
20260905194542 76 148 0.0 0.0 0.00 0.27 0.26 88 1011.6
20260905193044 75 0 0.0 0.0 0.00 0.27 0.26 89 1014.0
20260905193042 76 148 0.0 0.0 0.00 0.27 0.26 89 1011.6
20260905191544 76 0 0.0 3.0 0.04 0.27 0.26 85 1013.8
20260905191542 76 255 0.0 3.0 0.04 0.27 0.26 86 1011.5
20260905190142 76 298 0.0 2.0 0.24 0.27 0.26 86 1011.9
20260905190044 76 0 0.0 4.0 0.24 0.27 0.26 85 1014.3
20260905184553 76 177 0.0 4.0 0.26 0.27 0.26 86 1012.7
20260905184545 76 0 0.0 4.0 0.26 0.27 0.26 86 1015.1
20260905183043 76 186 0.0 1.0 0.26 0.27 0.26 89 1012.4
20260905183040 76 0 0.0 1.0 0.26 0.27 0.26 89 1014.8
20260905181543 78 271 1.0 2.0 0.21 0.22 0.21 84 1012.5
20260905181539 78 289 0.0 8.0 0.21 0.22 0.21 84 1014.9
20260905180133 84 78 2.0 10.0 0.02 0.03 0.02 70 1012.9
20260905180044 85 288 2.0 10.0 0.01 0.02 0.01 68 1015.2
20260905174553 91 335 0.0 2.0 0.00 0.01 0.00 57 1011.5
20260905174538 91 340 1.0 2.0 0.00 0.01 0.00 57 1013.9
20260905173052 88 298 0.0 3.0 0.00 0.01 0.00 60 1011.5
20260905173044 88 298 0.0 3.0 0.00 0.01 0.00 60 1013.9
20260905171556 90 297 1.0 4.0 0.00 0.01 0.00 61 1014.0
20260905171549 89 297 1.0 4.0 0.00 0.01 0.00 59 1011.7
20260905170149 91 293 0.0 3.0 0.00 0.01 0.00 58 1011.9
20260905170043 91 304 0.0 2.0 0.00 0.01 0.00 56 1014.4
20260905164548 88 299 0.0 4.0 0.00 0.01 0.00 61 1012.3
20260905164541 88 309 1.0 4.0 0.00 0.01 0.00 61 1014.7
20260905163046 87 300 1.0 3.0 0.00 0.01 0.00 71 1012.5
20260905161542 85 328 0.0 3.0 0.00 0.01 0.00 74 1012.5
20260905160139 84 301 1.0 3.0 0.00 0.01 0.00 77 1012.5
20260905160048 84 312 1.0 3.0 0.00 0.01 0.00 77 1014.9
20260905154554 84 300 1.0 3.0 0.00 0.01 0.00 77 1012.6
20260905153040 84 0 0.0 2.0 0.00 0.01 0.00 77 1015.0
20260905153033 84 293 0.0 2.0 0.00 0.01 0.00 78 1012.7
20260905151540 83 313 0.0 2.0 0.00 0.01 0.00 77 1015.2
20260905151531 83 302 0.0 2.0 0.00 0.01 0.00 78 1012.9
20260905150130 82 290 0.0 1.0 0.00 0.01 0.00 79 1012.8
20260905150040 82 0 0.0 1.0 0.00 0.01 0.00 78 1015.2
20260905144552 83 48 0.0 0.0 0.00 0.01 0.00 78 1013.1
20260905144549 83 0 0.0 0.0 0.00 0.01 0.00 78 1015.4
20260905143049 82 65 0.0 0.0 0.00 0.01 0.00 80 1013.1
20260905143038 82 0 0.0 0.0 0.00 0.01 0.00 80 1015.3
20260905141546 81 108 0.0 1.0 0.00 0.01 0.00 80 1013.1
20260905141543 81 0 0.0 1.0 0.00 0.01 0.00 81 1015.4
20260905140144 80 306 0.0 1.0 0.00 0.01 0.00 84 1013.1
20260905140044 80 0 0.0 1.0 0.00 0.01 0.00 84 1015.4
20260905134549 79 0 0.0 0.0 0.00 0.01 0.00 85 1015.4
20260905134544 79 100 0.0 0.0 0.00 0.01 0.00 86 1013.1
20260905133048 78 320 0.0 1.0 0.00 0.01 0.00 88 1013.4
20260905133043 78 0 0.0 1.0 0.00 0.01 0.00 88 1015.6
20260905131543 77 154 0.0 0.0 0.00 0.01 0.00 91 1013.4
20260905130136 77 154 0.0 0.0 0.00 0.01 0.00 92 1013.5
20260905130043 77 0 0.0 0.0 0.00 0.01 0.00 92 1015.8
20260905124549 76 0 0.0 0.0 0.00 0.01 0.00 93 1015.6
20260905124536 76 154 0.0 0.0 0.00 0.01 0.00 93 1013.4
20260905123039 75 0 0.0 0.0 0.00 0.01 0.00 93 1015.6
20260905123033 75 154 0.0 0.0 0.00 0.01 0.00 94 1013.5
20260905121542 74 0 0.0 0.0 0.00 0.01 0.00 94 1015.5
20260905121532 74 154 0.0 0.0 0.00 0.01 0.00 95 1013.3
20260905120131 73 155 0.0 0.0 0.00 0.01 0.00 94 1013.2
20260905120043 73 0 0.0 0.0 0.00 0.01 0.00 94 1015.4
20260905114552 73 226 0.0 0.0 0.00 0.01 0.00 95 1013.0
20260905114541 72 0 0.0 0.0 0.00 0.01 0.00 94 1015.3
20260905113050 72 226 0.0 0.0 0.00 0.01 0.00 94 1012.7
20260905113040 72 0 0.0 0.0 0.00 0.01 0.00 94 1015.0
20260905111625 72 226 0.0 0.0 0.00 0.01 0.00 94 1012.6
20260905111544 72 0 0.0 0.0 0.00 0.01 0.00 94 1014.8
20260905110144 72 226 0.0 0.0 0.00 0.01 0.00 94 1012.4
20260905110042 72 0 0.0 0.0 0.00 0.01 0.00 94 1014.5
20260905104547 73 0 0.0 0.0 0.00 0.01 0.00 94 1014.6
20260905104542 73 226 0.0 0.0 0.00 0.01 0.00 94 1012.4
20260905103042 73 0 0.0 0.0 0.00 0.01 0.00 94 1014.6
20260905103039 73 226 0.0 0.0 0.00 0.01 0.00 94 1012.3
20260905101549 73 226 0.0 0.0 0.00 0.01 0.00 94 1012.2
20260905101545 73 0 0.0 0.0 0.00 0.01 0.00 93 1014.4
20260905100137 73 226 0.0 0.0 0.00 0.01 0.00 94 1012.0
20260905100044 73 0 0.0 0.0 0.00 0.01 0.00 93 1014.3
20260905094558 73 0 0.0 0.0 0.00 0.01 0.00 93 1014.1
20260905094555 73 226 0.0 0.0 0.00 0.01 0.00 94 1011.9
20260905093100 73 226 0.0 0.0 0.00 0.01 0.00 94 1011.7
20260905093043 73 0 0.0 0.0 0.00 0.01 0.00 94 1013.9
20260905091552 74 226 0.0 0.0 0.00 0.01 0.00 94 1011.8
20260905091547 74 0 0.0 0.0 0.00 0.01 0.00 93 1013.9
20260905090151 74 226 0.0 0.0 0.00 0.01 0.00 94 1011.7
20260905090045 74 0 0.0 0.0 0.00 0.01 0.00 93 1014.0
20260905084550 74 226 0.0 0.0 0.00 0.01 0.00 94 1011.9
20260905084545 74 0 0.0 0.0 0.00 0.01 0.00 93 1014.1
20260905083045 74 226 0.0 0.0 0.00 0.01 0.00 93 1012.0
20260905083040 74 0 0.0 0.0 0.00 0.01 0.00 93 1014.2
20260905081548 74 0 0.0 0.0 0.00 0.01 0.00 93 1014.2
20260905081545 74 226 0.0 0.0 0.00 0.01 0.00 94 1012.1
20260905080145 74 226 0.0 0.0 0.00 0.01 0.00 94 1012.0
20260905080055 74 0 0.0 0.0 0.00 0.01 0.00 93 1014.2
20260905074543 74 228 0.0 0.0 0.00 0.01 0.00 93 1012.1
20260905073045 74 0 0.0 0.0 0.00 0.01 0.00 93 1014.4
20260905073042 74 228 0.0 0.0 0.00 0.01 0.00 93 1012.3
20260905071554 74 0 0.0 0.0 0.00 0.01 0.00 93 1014.4
20260905071536 74 228 0.0 0.0 0.00 0.01 0.00 93 1012.3
20260905070136 74 228 0.0 0.0 0.00 0.01 0.00 93 1012.2
20260905070048 74 0 0.0 0.0 0.00 0.01 0.00 92 1014.5
20260905064549 74 0 0.0 0.0 0.00 0.01 0.00 92 1014.6
20260905064547 74 229 0.0 0.0 0.00 0.01 0.00 93 1012.4
20260905063046 74 229 0.0 0.0 0.00 0.01 0.00 93 1012.5
20260905063038 74 0 0.0 0.0 0.00 0.01 0.00 92 1014.7
20260905061604 74 0 0.0 0.0 0.00 0.01 0.00 92 1014.5
20260905061546 74 229 0.0 0.0 0.00 0.01 0.00 92 1012.3
20260905060145 74 256 0.0 0.0 0.00 0.01 0.00 92 1012.4
20260905060044 74 0 0.0 0.0 0.00 0.01 0.00 92 1014.7
20260905054543 74 0 0.0 0.0 0.00 0.01 0.00 91 1014.7
20260905054541 74 256 0.0 0.0 0.00 0.01 0.00 92 1012.5
20260905053043 74 256 0.0 0.0 0.00 0.01 0.00 92 1012.5
20260905051544 74 256 0.0 0.0 0.00 0.01 0.00 92 1012.5
20260905051542 74 0 0.0 0.0 0.00 0.01 0.00 91 1014.9
20260905050139 75 256 0.0 0.0 0.00 0.01 0.00 91 1012.5
20260905050045 75 0 0.0 0.0 0.00 0.01 0.00 91 1014.9
20260905044546 75 0 0.0 0.0 0.00 0.01 0.00 91 1014.9
20260905044538 75 256 0.0 0.0 0.00 0.01 0.00 91 1012.6